period_start,C,m1,H,J0,J1,J2,J3,J4,J5,JA,JB,JC,JD,JJ,JK,JN,#
2016-01-22 00:04:18,0.34,1.45,0.00,16.14,20.67,24.39,15.05,50.73,1023.63,2061.94,3130.03,2742.99,3117.63,599.91,614.30,6.02,0000 0000 0000 0000 000000
2016-01-22 00:09:19,0.30,1.47,0.00,16.08,20.67,24.40,15.09,50.84,1023.65,2061.91,3125.14,2738.48,3112.68,600.41,614.82,6.07,0000 0000 0000 0000 000000
2016-01-22 00:14:20,0.25,1.49,0.00,16.01,20.66,24.37,15.13,50.72,1023.88,2061.85,3120.93,2734.75,3108.29,599.84,614.63,6.12,0000 0000 0000 0000 000000
2016-01-22 00:19:22,0.24,1.50,0.00,15.96,20.67,24.35,15.15,50.35,1024.10,2061.60,3116.74,2731.07,3104.14,600.23,615.27,6.17,0000 0000 0000 0000 000000
2016-01-22 00:24:23,0.27,1.51,0.00,15.92,20.65,24.34,15.06,50.09,1024.39,2061.77,3112.64,2727.49,3100.06,600.00,615.39,6.22,0000 0000 0000 0000 000000
2016-01-22 00:29:24,0.24,1.52,0.00,15.88,20.65,24.35,15.11,50.07,1024.44,2061.58,3108.51,2723.85,3095.93,599.86,615.28,6.27,0000 0000 0000 0000 000000
2016-01-22 00:34:26,0.25,1.53,0.00,15.81,20.64,24.30,15.10,50.23,1024.31,2061.48,3104.33,2720.35,3092.02,599.90,615.50,6.32,0000 0000 0000 0000 000000
2016-01-22 00:39:27,0.31,1.55,0.00,15.77,20.64,24.28,15.12,50.58,1024.04,2061.65,3099.81,2716.27,3087.52,600.11,615.58,6.37,0000 0000 0000 0000 000000
2016-01-22 00:44:29,0.29,1.57,0.00,15.69,20.64,24.29,15.19,50.63,1023.69,2061.49,3095.06,2712.13,3082.52,600.03,615.33,6.42,0000 0000 0000 0000 000000
2016-01-22 00:49:30,0.32,1.58,0.00,15.66,20.63,24.27,15.26,50.95,1023.38,2061.68,3090.49,2708.12,3078.03,600.33,615.55,6.47,0000 0000 0000 0000 000000
2016-01-22 00:54:32,0.24,1.60,0.00,15.62,20.62,24.24,15.20,50.67,1023.44,2061.71,3086.58,2704.57,3074.01,600.28,615.66,6.52,0000 0000 0000 0000 000000
2016-01-22 00:59:33,0.25,1.61,0.00,15.55,20.60,24.18,15.15,50.49,1023.63,2061.78,3082.51,2701.10,3070.23,599.82,615.44,6.57,0000 0000 0000 0000 000000
2016-01-22 01:04:34,0.22,1.62,0.00,15.51,20.59,24.18,15.07,50.17,1023.91,2061.86,3078.94,2698.00,3066.77,599.59,615.49,6.62,0000 0000 0000 0000 000000
2016-01-22 01:09:35,0.20,1.63,0.00,15.47,20.57,24.17,15.17,50.12,1023.98,2061.91,3075.53,2695.36,3063.61,599.94,615.96,6.67,0000 0000 0000 0000 000000
2016-01-22 01:14:37,0.23,1.64,0.00,15.43,20.55,24.11,15.10,50.47,1023.71,2061.98,3071.97,2692.30,3060.25,600.07,615.97,6.73,0000 0000 0000 0000 000000
2016-01-22 01:19:38,0.25,1.66,0.00,15.37,20.53,24.03,15.16,50.68,1023.34,2061.99,3068.13,2688.83,3056.35,599.93,615.77,6.78,0000 0000 0000 0000 000000
2016-01-22 01:24:40,0.23,1.67,0.00,15.34,20.50,24.03,15.10,50.45,1023.42,2061.99,3064.53,2685.69,3052.84,599.91,615.95,6.83,0000 0000 0000 0000 000000
2016-01-22 01:29:41,0.25,1.68,0.00,15.35,20.48,24.00,15.05,50.41,1023.09,2061.99,3060.57,2682.24,3049.06,599.66,615.43,6.88,0000 0000 0000 0000 000000
2016-01-22 01:34:42,0.32,1.70,0.00,15.32,20.45,24.01,15.20,50.54,1022.95,2061.99,3056.10,2678.00,3044.57,599.97,615.70,6.93,0000 0000 0000 0000 000000
2016-01-22 01:39:43,0.23,1.71,0.00,15.28,20.43,23.95,15.10,50.07,1023.10,2062.00,3052.50,2674.39,3040.63,599.96,615.81,6.98,0000 0000 0000 0000 000000
2016-01-22 01:44:45,0.20,1.72,0.00,15.25,20.40,23.93,15.16,50.62,1023.30,2062.00,3049.34,2671.52,3037.49,600.09,616.20,7.03,0000 0000 0000 0000 000000
2016-01-22 01:49:46,0.21,1.73,0.00,15.18,20.37,23.88,15.22,50.47,1023.58,2062.01,3046.08,2668.86,3034.42,600.17,616.53,7.08,0000 0000 0000 0000 000000
2016-01-22 01:54:47,0.21,1.74,0.00,15.15,20.35,23.85,15.14,50.19,1023.94,2062.02,3042.78,2665.73,3030.90,600.05,616.80,7.13,0000 0000 0000 0000 000000
2016-01-22 01:59:48,0.21,1.75,0.00,15.16,20.32,23.83,15.04,50.04,1024.15,2062.04,3039.37,2663.00,3028.00,599.99,616.75,7.18,0000 0000 0000 0000 000000
2016-01-22 02:04:50,0.19,1.76,0.00,15.14,20.29,23.79,15.22,50.20,1024.27,2062.05,3036.23,2660.47,3025.11,599.99,616.88,7.23,0000 0000 0000 0000 000000
2016-01-22 02:09:51,0.20,1.77,0.00,15.10,20.27,23.76,15.19,50.27,1024.52,2062.35,3033.34,2658.15,3022.40,600.02,617.10,7.28,0000 0000 0000 0000 000000
2016-01-22 02:14:52,0.20,1.78,0.00,15.09,20.24,23.69,15.23,49.97,1024.90,2062.60,3030.65,2655.84,3019.81,600.14,617.50,7.33,0000 0000 0000 0000 000000
2016-01-22 02:19:54,0.24,1.79,0.00,15.06,20.22,23.71,15.12,50.23,1024.86,2062.78,3027.41,2652.66,3016.32,599.95,617.36,7.38,0000 0000 0000 0000 000000
2016-01-22 02:24:55,0.19,1.80,0.00,15.04,20.19,23.65,15.16,50.23,1024.64,2062.93,3024.61,2650.16,3013.49,599.85,617.10,7.43,0000 0000 0000 0000 000000
2016-01-22 02:29:57,0.17,1.81,0.00,15.01,20.17,23.65,15.13,50.22,1024.78,2062.96,3021.83,2647.68,3010.81,599.93,617.33,7.48,0000 0000 0000 0000 000000
2016-01-22 02:34:59,0.16,1.82,0.00,15.01,20.14,23.59,15.09,50.02,1025.07,2062.98,3019.29,2645.69,3008.61,599.85,617.50,7.53,0000 0000 0000 0000 000000
2016-01-22 02:40:00,0.15,1.83,0.00,14.99,20.12,23.58,15.16,50.12,1025.33,2062.99,3016.76,2643.81,3006.56,600.09,617.95,7.58,0000 0000 0000 0000 000000
2016-01-22 02:45:01,0.15,1.84,0.00,14.97,20.09,23.54,15.27,50.29,1025.25,2062.99,3014.28,2641.77,3004.33,600.15,617.94,7.63,0000 0000 0000 0000 000000
2016-01-22 02:50:03,0.15,1.85,0.00,14.95,20.07,23.54,15.19,50.16,1025.26,2062.99,3011.93,2639.90,3002.12,600.10,618.00,7.68,0000 0000 0000 0000 000000
2016-01-22 02:55:04,0.12,1.85,0.00,14.92,20.04,23.51,15.16,50.00,1025.39,2062.99,3009.71,2638.14,3000.13,600.01,617.99,7.73,0000 0000 0000 0000 000000
2016-01-22 03:00:05,0.14,1.86,0.00,14.92,20.02,23.47,15.30,49.94,1025.40,2063.01,3007.52,2636.49,2998.22,600.62,618.70,7.78,0000 0000 0000 0000 000000
2016-01-22 03:05:06,0.13,1.87,0.00,14.91,19.99,23.42,15.05,49.85,1025.43,2063.00,3005.30,2634.77,2996.26,599.79,617.87,7.83,0000 0000 0000 0000 000000
2016-01-22 03:10:08,0.12,1.87,0.00,14.91,19.97,23.50,15.28,50.00,1025.58,2063.03,3003.32,2633.35,2994.50,600.30,618.48,7.88,0000 0000 0000 0000 000000
2016-01-22 03:15:09,0.14,1.88,0.00,14.89,19.94,23.40,15.15,49.87,1025.67,2063.10,3001.23,2631.79,2992.67,600.08,618.31,7.93,0000 0000 0000 0000 000000
2016-01-22 03:20:10,0.11,1.88,0.00,14.87,19.92,23.39,15.03,49.73,1025.59,2063.16,2999.34,2630.35,2991.02,599.86,618.25,7.98,0000 0000 0000 0000 000000
2016-01-22 03:25:12,0.10,1.89,0.00,14.87,19.89,23.39,15.19,49.87,1025.64,2063.32,2997.61,2629.19,2989.64,600.03,618.33,8.03,0000 0000 0000 0000 000000
2016-01-22 03:30:13,0.16,1.90,0.00,14.87,19.88,23.36,15.14,49.93,1025.70,2063.71,2995.74,2627.76,2988.03,600.12,618.41,8.08,0000 0000 0000 0000 000000
2016-01-22 03:35:14,0.13,1.91,0.00,14.86,19.86,23.35,15.12,49.88,1025.89,2063.89,2993.73,2626.29,2986.28,599.77,618.26,8.13,0000 0000 0000 0000 000000
2016-01-22 03:40:15,0.10,1.91,0.00,14.86,19.84,23.31,15.04,49.89,1025.89,2063.96,2991.93,2624.98,2984.81,599.56,618.11,8.18,0000 0000 0000 0000 000000
2016-01-22 03:45:16,0.11,1.92,0.00,14.87,19.82,23.31,15.11,49.65,1026.07,2063.98,2990.11,2623.69,2983.33,599.85,618.42,8.23,0000 0000 0000 0000 000000
2016-01-22 03:50:18,0.10,1.92,0.00,14.85,19.80,23.31,15.16,49.90,1026.28,2063.98,2988.28,2622.54,2981.73,600.03,618.84,8.28,0000 0000 0000 0000 000000
2016-01-22 03:55:19,0.09,1.93,0.00,14.84,19.79,23.25,15.17,49.86,1025.97,2063.98,2986.39,2621.24,2980.18,600.30,618.83,8.33,0000 0000 0000 0000 000000
2016-01-22 04:00:20,0.11,1.93,0.00,14.83,19.77,23.24,15.17,49.87,1025.91,2063.98,2984.53,2619.92,2978.57,600.01,618.51,8.38,0000 0000 0000 0000 000000
2016-01-22 04:05:22,0.11,1.94,0.00,14.79,19.75,23.25,15.16,49.98,1025.92,2063.99,2982.64,2618.61,2976.97,599.84,618.60,8.43,0000 0000 0000 0000 000000
2016-01-22 04:10:23,0.11,1.95,0.00,14.76,19.74,23.25,15.14,50.04,1026.05,2063.99,2980.69,2617.17,2975.36,600.04,618.80,8.48,0000 0000 0000 0000 000000
2016-01-22 04:15:25,0.13,1.95,0.00,14.74,19.72,23.25,15.25,50.08,1026.05,2064.00,2978.59,2615.57,2973.48,600.19,619.03,8.53,0000 0000 0000 0000 000000
2016-01-22 04:20:26,0.12,1.96,0.00,14.72,19.70,23.22,15.23,49.94,1025.97,2064.01,2976.55,2613.97,2971.70,600.22,619.04,8.58,0000 0000 0000 0000 000000
2016-01-22 04:25:27,0.11,1.96,0.00,14.70,19.68,23.19,15.15,49.91,1025.93,2064.01,2974.64,2612.67,2970.21,599.86,618.56,8.63,0000 0000 0000 0000 000000
2016-01-22 04:30:28,0.11,1.97,0.00,14.66,19.67,23.18,15.21,50.02,1025.98,2064.02,2972.57,2611.21,2968.47,600.21,619.27,8.68,0000 0000 0000 0000 000000
2016-01-22 04:35:29,0.14,1.98,0.00,14.65,19.64,23.17,15.20,49.99,1026.03,2064.06,2970.34,2609.67,2966.55,599.81,618.85,8.73,0000 0000 0000 0000 000000
2016-01-22 04:40:31,0.13,1.98,0.00,14.62,19.63,23.16,15.22,50.12,1026.20,2064.04,2968.13,2607.96,2964.58,600.06,619.24,8.78,0000 0000 0000 0000 000000
2016-01-22 04:45:32,0.13,1.99,0.00,14.60,19.61,23.13,15.26,50.04,1026.38,2064.05,2965.93,2606.26,2962.67,600.30,619.59,8.83,0000 0000 0000 0000 000000
2016-01-22 04:50:33,0.13,2.00,0.00,14.59,19.59,23.08,15.21,49.88,1026.43,2064.15,2964.04,2604.78,2960.96,599.98,619.35,8.88,0000 0000 0000 0000 000000
2016-01-22 04:55:34,0.13,2.00,0.00,14.57,19.57,23.04,15.28,49.96,1026.39,2064.36,2962.11,2603.43,2959.44,599.85,619.12,8.94,0000 0000 0000 0000 000000
2016-01-22 05:00:35,0.14,2.01,0.00,14.55,19.54,23.03,15.25,49.78,1026.37,2064.49,2960.09,2601.89,2957.75,600.09,619.56,8.99,0000 0000 0000 0000 000000
2016-01-22 05:05:37,0.15,2.02,0.00,14.51,19.53,23.07,15.19,49.94,1025.84,2064.86,2958.14,2600.47,2956.12,599.86,619.09,9.04,0000 0000 0000 0000 000000
2016-01-22 05:10:38,0.41,2.03,0.00,14.51,19.51,23.03,15.16,50.43,1025.53,2064.95,2953.66,2596.91,2952.36,600.13,619.16,9.09,0000 0000 0000 0000 000000
2016-01-22 05:15:40,0.14,2.05,0.00,14.50,19.48,22.96,15.14,50.43,1025.87,2064.99,2949.88,2593.16,2948.33,599.91,619.13,9.14,0000 0000 0000 0000 000000
2016-01-22 05:20:41,0.11,2.05,0.00,14.48,19.45,22.93,15.19,50.01,1026.36,2064.99,2948.46,2591.73,2946.65,599.81,619.37,9.19,0000 0000 0000 0000 000000
2016-01-22 05:25:43,0.10,2.06,0.00,14.46,19.43,22.93,15.27,50.08,1026.49,2064.99,2946.84,2590.34,2945.01,600.07,619.77,9.24,0000 0000 0000 0000 000000
2016-01-22 05:30:44,0.12,2.06,0.00,14.40,19.41,22.89,15.25,49.93,1026.82,2064.99,2945.00,2588.79,2943.43,599.85,619.92,9.29,0000 0000 0000 0000 000000
2016-01-22 05:35:46,0.11,2.07,0.00,14.39,19.39,22.89,15.17,49.68,1026.87,2064.99,2943.26,2587.47,2941.82,599.74,619.80,9.34,0000 0000 0000 0000 000000
2016-01-22 05:40:47,0.12,2.08,0.00,14.39,19.37,22.88,15.17,49.67,1026.88,2065.00,2941.26,2585.84,2940.03,599.90,620.00,9.39,0000 0000 0000 0000 000000
2016-01-22 05:45:49,0.12,2.08,0.00,14.39,19.34,22.84,15.18,49.86,1026.70,2065.01,2939.35,2584.42,2938.35,599.76,619.63,9.44,0000 0000 0000 0000 000000
2016-01-22 05:50:50,0.16,2.09,0.00,14.39,19.33,22.82,15.24,50.13,1026.39,2065.04,2937.10,2582.56,2936.30,599.88,619.66,9.49,0000 0000 0000 0000 000000
2016-01-22 05:55:52,0.15,2.10,0.00,14.34,19.31,22.80,15.31,50.13,1026.37,2065.04,2934.83,2580.75,2934.22,600.25,620.04,9.54,0000 0000 0000 0000 000000
2016-01-22 06:00:53,0.17,2.11,0.00,14.31,19.29,22.78,15.15,50.22,1026.38,2065.06,2932.32,2578.46,2931.78,600.02,620.00,9.59,0000 0000 0000 0000 000000
2016-01-22 06:05:54,0.17,2.11,0.00,14.27,19.27,22.76,15.13,50.07,1026.38,2065.17,2929.84,2576.39,2929.37,599.52,619.48,9.64,0000 0000 0000 0000 000000
2016-01-22 06:10:55,0.21,2.12,0.00,14.22,19.24,22.75,15.19,50.19,1026.48,2065.53,2927.35,2574.28,2926.93,599.99,620.18,9.69,0000 0000 0000 0000 000000
2016-01-22 06:15:57,0.15,2.13,0.00,14.20,19.22,22.72,15.18,50.23,1026.47,2065.75,2925.12,2572.45,2924.87,599.95,620.33,9.74,0000 0000 0000 0000 000000
2016-01-22 06:20:59,0.17,2.14,0.00,14.16,19.20,22.67,15.27,50.15,1026.58,2065.86,2922.84,2570.68,2922.82,600.08,620.48,9.79,0000 0000 0000 0000 000000
2016-01-22 06:26:00,0.14,2.15,0.00,14.14,19.17,22.67,15.18,50.11,1026.77,2065.94,2920.56,2568.87,2920.78,599.84,620.38,9.84,0000 0000 0000 0000 000000
2016-01-22 06:31:01,0.12,2.16,0.00,14.14,19.14,22.64,15.27,50.06,1026.88,2065.97,2918.48,2567.30,2918.96,600.29,620.86,9.89,0000 0000 0000 0000 000000
2016-01-22 06:36:02,0.13,2.16,0.00,14.13,19.12,22.63,15.26,50.05,1026.87,2065.98,2916.38,2565.66,2917.25,600.21,620.79,9.94,0000 0000 0000 0000 000000
2016-01-22 06:41:04,0.11,2.17,0.00,14.09,19.09,22.59,15.26,49.96,1026.87,2065.98,2914.39,2564.35,2915.56,599.87,620.55,9.99,0000 0000 0000 0000 000000
2016-01-22 06:46:05,0.14,2.18,0.00,14.04,19.07,22.58,15.30,50.16,1026.69,2065.99,2912.24,2562.69,2913.72,600.32,621.05,10.04,0000 0000 0000 0000 000000
2016-01-22 06:51:06,0.12,2.18,0.00,14.04,19.04,22.58,15.22,50.13,1026.81,2065.99,2910.09,2561.30,2911.98,599.99,620.78,10.09,0000 0000 0000 0000 000000
2016-01-22 06:56:07,0.14,2.19,0.00,14.05,19.02,22.49,15.26,50.03,1026.96,2065.99,2907.96,2559.57,2910.03,599.97,620.85,10.14,0000 0000 0000 0000 000000
2016-01-22 07:01:09,0.12,2.20,0.00,14.02,18.99,22.47,15.18,49.88,1026.89,2066.00,2905.84,2558.09,2908.20,599.83,620.73,10.19,0000 0000 0000 0000 000000
2016-01-22 07:06:10,0.14,2.20,0.00,13.98,18.97,22.47,15.25,50.07,1026.66,2066.02,2903.67,2556.36,2906.24,599.96,620.80,10.24,0000 0000 0000 0000 000000
2016-01-22 07:11:12,0.14,2.21,0.00,13.96,18.94,22.47,15.19,50.13,1026.39,2066.08,2901.48,2554.61,2904.31,599.76,620.51,10.29,0000 0000 0000 0000 000000
2016-01-22 07:16:13,0.15,2.22,0.00,13.95,18.92,22.43,15.28,50.19,1026.37,2066.09,2899.22,2552.79,2902.29,600.20,620.98,10.34,0000 0000 0000 0000 000000
2016-01-22 07:21:14,0.16,2.23,0.00,13.96,18.89,22.41,15.17,50.08,1026.37,2066.36,2896.98,2551.31,2900.20,600.00,620.80,10.39,0000 0000 0000 0000 000000
2016-01-22 07:26:16,0.18,2.24,0.00,13.92,18.87,22.38,15.29,50.09,1026.39,2066.76,2894.71,2549.59,2898.31,600.16,620.97,10.44,0000 0000 0000 0000 000000
2016-01-22 07:31:17,0.15,2.24,0.00,13.90,18.85,22.36,15.26,49.97,1026.41,2066.92,2892.45,2547.84,2896.24,600.08,620.92,10.49,0000 0000 0000 0000 000000
2016-01-22 07:36:18,0.12,2.25,0.00,13.87,18.83,22.36,15.26,49.89,1026.49,2066.97,2890.43,2546.44,2894.57,599.93,620.91,10.54,0000 0000 0000 0000 000000
2016-01-22 07:41:19,0.12,2.26,0.00,13.86,18.81,22.33,15.22,49.92,1026.67,2066.99,2888.50,2544.89,2892.96,600.03,621.12,10.59,0000 0000 0000 0000 000000
2016-01-22 07:46:21,0.12,2.26,0.00,13.84,18.78,22.34,15.22,49.88,1026.87,2066.99,2886.48,2543.47,2891.19,599.87,621.13,10.64,0000 0000 0000 0000 000000
2016-01-22 07:51:22,0.12,2.27,0.00,13.82,18.76,22.30,15.23,49.76,1026.94,2066.99,2884.47,2542.06,2889.51,599.98,621.40,10.69,0000 0000 0000 0000 000000
2016-01-22 07:56:23,0.11,2.28,0.00,13.81,18.74,22.30,15.30,49.77,1027.12,2066.99,2882.60,2540.82,2888.12,600.20,621.53,10.74,0000 0000 0000 0000 000000
2016-01-22 08:01:24,0.12,2.28,0.00,13.80,18.72,22.28,15.20,49.67,1027.31,2066.99,2880.58,2539.38,2886.37,599.85,621.49,10.79,0000 0000 0000 0000 000000
2016-01-22 08:06:26,0.11,2.29,0.00,13.81,18.69,22.23,15.32,49.61,1027.36,2067.01,2878.74,2537.98,2884.87,600.15,621.78,10.84,0000 0000 0000 0000 000000
2016-01-22 08:11:27,0.12,2.29,0.00,13.82,18.68,22.24,15.28,49.68,1027.36,2067.01,2876.87,2536.66,2883.41,599.91,621.51,10.89,0000 0000 0000 0000 000000
2016-01-22 08:16:28,0.13,2.30,0.00,13.81,18.66,22.24,15.19,49.63,1027.36,2067.02,2874.81,2535.25,2881.67,600.13,621.70,10.94,0000 0000 0000 0000 000000
2016-01-22 08:21:29,0.12,2.31,0.00,13.80,18.64,22.23,15.28,49.57,1027.30,2067.05,2872.84,2533.70,2879.97,600.36,621.91,11.00,0000 0000 0000 0000 000000
2016-01-22 08:26:31,0.13,2.31,0.00,13.80,18.63,22.21,15.34,49.60,1027.11,2067.19,2870.87,2532.36,2878.58,600.43,622.03,11.05,0000 0000 0000 0000 000000
2016-01-22 08:31:32,0.18,2.32,0.00,13.81,18.61,22.19,15.14,49.53,1027.26,2067.48,2868.81,2530.75,2876.86,599.48,620.93,11.10,0000 0000 0000 0000 000000
2016-01-22 08:36:33,0.11,2.33,0.00,13.81,18.59,22.17,15.24,49.63,1027.32,2067.55,2866.76,2529.17,2875.02,600.37,621.82,11.15,0000 0000 0000 0000 000000
2016-01-22 08:41:35,0.16,2.34,0.00,13.82,18.58,22.14,15.31,49.76,1027.17,2067.74,2864.64,2527.76,2873.23,600.24,621.80,11.20,0000 0000 0000 0000 000000
2016-01-22 08:46:36,0.16,2.34,0.00,13.79,18.57,22.13,15.23,49.84,1026.90,2067.89,2862.35,2525.95,2871.31,600.02,621.41,11.25,0000 0000 0000 0000 000000
2016-01-22 08:51:38,0.14,2.35,0.00,13.78,18.56,22.16,15.22,49.83,1026.97,2067.78,2859.92,2524.16,2869.27,600.00,621.49,11.30,0000 0000 0000 0000 000000
2016-01-22 08:56:39,0.14,2.36,0.00,13.78,18.54,22.12,15.30,49.85,1026.93,2067.96,2857.77,2522.62,2867.48,599.99,621.48,11.35,0000 0000 0000 0000 000000
2016-01-22 09:01:40,0.13,2.37,0.00,13.75,18.53,22.12,15.24,49.92,1026.88,2067.97,2855.67,2521.05,2865.63,599.98,621.51,11.40,0000 0000 0000 0000 000000
2016-01-22 09:06:42,0.14,2.37,0.00,13.73,18.52,22.11,15.29,50.18,1026.87,2067.95,2853.27,2519.62,2863.58,600.17,621.72,11.45,0000 0000 0000 0000 000000
2016-01-22 09:11:43,0.12,2.38,0.00,13.72,18.51,22.09,15.24,50.17,1026.72,2067.98,2851.25,2518.30,2861.77,599.73,621.21,11.50,0000 0000 0000 0000 000000
2016-01-22 09:16:44,0.17,2.39,0.00,13.71,18.49,22.11,15.36,50.27,1026.81,2067.99,2848.92,2516.23,2859.70,600.37,621.82,11.55,0000 0000 0000 0000 000000
2016-01-22 09:21:46,0.17,2.40,0.00,13.70,18.48,22.08,15.26,50.17,1026.86,2067.99,2846.55,2514.05,2857.26,599.93,621.54,11.60,0000 0000 0000 0000 000000
2016-01-22 09:26:47,0.17,2.41,0.00,13.65,18.47,22.09,15.30,50.23,1026.87,2067.99,2844.18,2512.13,2855.12,600.41,622.13,11.65,0000 0000 0000 0000 000000
2016-01-22 09:31:49,0.15,2.41,0.00,13.63,18.45,22.06,15.34,50.16,1026.90,2067.99,2841.73,2510.14,2852.89,600.11,621.87,11.70,0000 0000 0000 0000 000000
2016-01-22 09:36:50,0.16,2.42,0.00,13.57,18.44,22.02,15.24,50.07,1027.08,2068.00,2839.40,2508.33,2850.84,599.94,621.91,11.75,0000 0000 0000 0000 000000
2016-01-22 09:41:51,0.22,2.43,0.00,13.55,18.42,21.98,15.25,50.05,1027.34,2068.00,2836.39,2505.53,2847.81,599.96,622.12,11.80,0000 0000 0000 0000 000000
2016-01-22 09:46:52,0.11,2.44,0.00,13.55,18.40,21.99,15.22,49.68,1027.57,2068.01,2834.28,2504.05,2846.08,600.11,622.51,11.85,0000 0000 0000 0000 000000
2016-01-22 09:51:53,0.14,2.45,0.00,13.54,18.39,21.94,15.28,49.80,1027.82,2068.02,2832.09,2502.52,2844.29,599.99,622.53,11.90,0000 0000 0000 0000 000000
2016-01-22 09:56:55,0.17,2.45,0.00,13.52,18.37,21.94,15.32,49.74,1027.80,2068.04,2829.77,2500.58,2842.09,600.35,622.88,11.95,0000 0000 0000 0000 000000
2016-01-22 10:01:56,0.13,2.46,0.00,13.48,18.35,21.92,15.28,49.85,1027.86,2068.02,2827.52,2498.80,2840.20,600.05,622.65,12.00,0000 0000 0000 0000 000000
2016-01-22 10:06:57,0.14,2.47,0.00,13.49,18.33,21.92,15.27,49.81,1027.83,2068.06,2825.32,2497.06,2838.33,599.67,622.31,12.05,0000 0000 0000 0000 000000
2016-01-22 10:11:59,0.16,2.48,0.00,13.50,18.32,21.90,15.27,49.98,1027.64,2068.14,2823.03,2495.59,2836.48,599.70,622.15,12.10,0000 0000 0000 0000 000000
2016-01-22 10:17:00,0.14,2.48,0.00,13.49,18.29,21.87,15.23,49.90,1027.37,2068.37,2820.96,2494.53,2835.00,600.04,622.37,12.15,0000 0000 0000 0000 000000
2016-01-22 10:22:01,0.17,2.49,0.00,13.47,18.29,21.87,15.23,50.07,1027.35,2068.70,2818.73,2492.95,2833.24,599.85,622.20,12.20,0000 0000 0000 0000 000000
2016-01-22 10:27:02,0.18,2.50,0.00,13.43,18.27,21.82,15.29,50.06,1027.33,2068.80,2816.27,2491.13,2831.13,599.92,622.39,12.25,0000 0000 0000 0000 000000
2016-01-22 10:32:03,0.15,2.51,0.00,13.42,18.25,21.83,15.31,50.22,1027.35,2068.94,2814.08,2489.41,2829.14,599.81,622.34,12.30,0000 0000 0000 0000 000000
2016-01-22 10:37:04,0.18,2.52,0.00,13.41,18.24,21.79,15.27,50.13,1027.36,2068.96,2811.19,2487.04,2826.41,599.92,622.41,12.35,0000 0000 0000 0000 000000
2016-01-22 10:42:06,0.16,2.53,0.00,13.38,18.22,21.81,15.34,50.23,1027.43,2068.97,2808.72,2485.37,2824.30,600.03,622.65,12.40,0000 0000 0000 0000 000000
2016-01-22 10:47:07,0.17,2.54,0.00,13.35,18.21,21.81,15.28,50.08,1027.37,2068.98,2806.24,2483.52,2822.20,599.89,622.53,12.45,0000 0000 0000 0000 000000
2016-01-22 10:52:08,0.15,2.54,0.00,13.35,18.19,21.79,15.21,49.93,1027.50,2068.98,2803.86,2481.62,2820.14,599.64,622.46,12.50,0000 0000 0000 0000 000000
2016-01-22 10:57:10,0.13,2.55,0.00,13.34,18.17,21.77,15.31,49.95,1027.80,2068.99,2801.64,2480.12,2818.37,600.21,623.11,12.55,0000 0000 0000 0000 000000
2016-01-22 11:02:11,0.14,2.56,0.00,13.33,18.16,21.74,15.23,49.85,1028.06,2068.99,2799.42,2478.52,2816.57,599.54,622.60,12.60,0000 0000 0000 0000 000000
2016-01-22 11:07:12,0.14,2.57,0.00,13.31,18.14,21.72,15.30,49.78,1028.33,2068.99,2797.19,2476.92,2814.81,600.30,623.54,12.65,0000 0000 0000 0000 000000
2016-01-22 11:12:13,0.15,2.57,0.00,13.30,18.12,21.73,15.28,49.77,1028.33,2068.99,2794.90,2475.31,2812.92,599.88,623.13,12.70,0000 0000 0000 0000 000000
2016-01-22 11:17:15,0.14,2.58,0.00,13.32,18.11,21.74,15.27,49.51,1028.34,2068.99,2792.55,2473.68,2811.08,599.85,623.12,12.75,0000 0000 0000 0000 000000
2016-01-22 11:22:16,0.13,2.59,0.00,13.35,18.09,21.67,15.28,49.39,1028.33,2068.99,2790.31,2472.19,2809.35,599.67,622.96,12.80,0000 0000 0000 0000 000000
2016-01-22 11:27:17,0.15,2.59,0.00,13.35,18.08,21.64,15.28,49.48,1028.33,2068.99,2787.97,2470.60,2807.58,600.28,623.50,12.85,0000 0000 0000 0000 000000
2016-01-22 11:32:18,0.13,2.60,0.00,13.35,18.07,21.66,15.27,49.40,1028.32,2069.01,2785.68,2469.05,2805.81,599.93,623.16,12.90,0000 0000 0000 0000 000000
2016-01-22 11:37:20,0.14,2.61,0.00,13.37,18.06,21.65,15.22,49.42,1028.18,2069.02,2783.49,2467.50,2803.94,599.77,622.84,12.95,0000 0000 0000 0000 000000
2016-01-22 11:42:21,0.13,2.62,0.00,13.39,18.04,21.66,15.27,49.56,1028.07,2069.03,2781.27,2465.92,2802.16,599.75,622.70,13.00,0000 0000 0000 0000 000000
2016-01-22 11:47:22,0.14,2.63,0.00,13.41,18.04,21.65,15.25,49.48,1028.33,2069.03,2779.00,2464.37,2800.34,600.06,623.09,13.05,0000 0000 0000 0000 000000
2016-01-22 11:52:23,0.16,2.63,0.00,13.41,18.02,21.63,15.32,49.44,1028.33,2069.07,2776.68,2462.66,2798.44,599.98,623.17,13.10,0000 0000 0000 0000 000000
2016-01-22 11:57:24,0.15,2.64,0.00,13.39,18.02,21.62,15.33,49.54,1028.36,2069.17,2774.38,2461.02,2796.55,600.02,623.25,13.15,0000 0000 0000 0000 000000
2016-01-22 12:02:26,0.16,2.65,0.00,13.42,18.02,21.62,15.21,49.58,1028.34,2069.15,2771.90,2459.20,2794.44,600.02,623.09,13.20,0000 0000 0000 0000 000000
2016-01-22 12:07:27,0.17,2.66,0.00,13.44,18.01,21.66,15.26,49.54,1028.33,2069.27,2769.43,2457.47,2792.48,599.98,623.03,13.25,0000 0000 0000 0000 000000
2016-01-22 12:12:28,0.17,2.67,0.00,13.47,18.00,21.63,15.27,49.58,1028.19,2069.43,2766.57,2455.57,2790.23,600.24,623.04,13.31,0000 0000 0000 0000 000000
2016-01-22 12:17:29,0.40,2.68,0.00,13.46,17.99,21.63,15.33,49.80,1028.23,2069.91,2761.13,2452.07,2786.46,600.07,622.99,13.36,0000 0000 0000 0000 000000
2016-01-22 12:22:31,0.13,2.69,0.00,13.46,17.99,21.61,15.22,49.54,1028.00,2069.97,2759.45,2450.21,2784.68,599.75,622.52,13.41,0000 0000 0000 0000 000000
2016-01-22 12:27:32,0.14,2.70,0.00,13.49,17.99,21.59,15.27,49.39,1027.85,2069.97,2757.50,2448.69,2782.87,600.23,622.84,13.46,0000 0000 0000 0000 000000
2016-01-22 12:32:33,0.16,2.71,0.00,13.51,17.99,21.64,15.23,49.37,1027.85,2069.95,2755.07,2446.95,2780.81,599.81,622.38,13.51,0000 0000 0000 0000 000000
2016-01-22 12:37:35,0.15,2.72,0.00,13.49,17.99,21.65,15.27,49.42,1027.85,2069.95,2752.57,2445.17,2778.82,599.93,622.62,13.56,0000 0000 0000 0000 000000
2016-01-22 12:42:36,0.15,2.73,0.00,13.48,17.99,21.62,15.28,49.44,1027.82,2069.89,2750.33,2443.45,2776.83,600.21,622.85,13.61,0000 0000 0000 0000 000000
2016-01-22 12:47:38,0.17,2.73,0.00,13.49,17.98,21.69,15.28,49.47,1027.45,2069.91,2747.82,2441.69,2774.83,599.94,622.35,13.66,0000 0000 0000 0000 000000
2016-01-22 12:52:39,0.16,2.74,0.00,13.53,17.99,21.70,15.32,49.58,1027.31,2069.93,2745.35,2439.93,2772.86,600.44,622.57,13.71,0000 0000 0000 0000 000000
2016-01-22 12:57:40,0.16,2.75,0.00,13.53,17.99,21.72,15.27,49.54,1027.35,2069.91,2742.88,2438.14,2770.86,600.14,622.37,13.76,0000 0000 0000 0000 000000